This demonstration page uses our WeatherBlox Daily Observations layout. Learn more.

Left ArrowRight Arrow

39.01783, -85.05884

Hourly Observations for May 7, 2022

Temp ( °F °C ) Dew Point ( °F °C ) Humidity (%) Winds ( mph kmh ) Pressure ( in mb ) Visibility ( mi km ) Precip ( " mm )
12:52 am 00:52 Cloudy 54 12.2 53 11.7 97 97 N 10 17 29.58 1002 10 16 0.00 0.00
1:52 am 01:52 Cloudy 53 11.7 53 11.7 100 100 N 15 24 29.59 1002 8 13 0.00 0.00
2:52 am 02:52 Cloudy 53 11.7 52 11.1 96 96 N 12 19 29.59 1002 10 16 0.00 0.00
3:52 am 03:52 Cloudy 53 11.7 52 11.1 96 96 N 14 22 29.59 1002 9 14 0.00 0.00
4:23 am 04:23 Cloudy with Mist and Fog 53 11.7 53 11.7 100 100 NNW 10 17 29.62 1003 3 4 0.00 0.00
4:52 am 04:52 Cloudy with Light Rain 52 11.1 52 11.1 100 100 N 12 19 29.61 1003 3 4 0.00 0.00
5:00 am 05:00 Cloudy with Light Rain 52 11.1 52 11.1 100 100 N 16 26 29.64 1004 3 5 0.00 0.00
5:52 am 05:52 Cloudy with Mist and Fog 51 10.6 51 10.6 100 100 N 17 28 29.63 1003 5 8 0.00 0.00
6:29 am 06:29 Cloudy with Light Rain 51 10.6 51 10.6 100 100 N 13 20 29.67 1005 2 3 0.00 0.00
6:52 am 06:52 Cloudy with Light Rain 51 10.6 51 10.6 100 100 N 12 19 29.65 1004 2 3 0.00 0.00
7:31 am 07:31 Cloudy with Mist and Fog 50 10 50 10 100 100 N 13 20 29.69 1005 2 3 0.00 0.00
7:52 am 07:52 Cloudy with Mist and Fog 50 10 50 10 100 100 N 13 20 29.68 1005 2 3 0.00 0.00
8:43 am 08:43 Cloudy 51 10.6 50 10 96 96 N 12 19 29.72 1006 9 14 0.01 0.25
8:52 am 08:52 Cloudy 51 10.6 50 10 96 96 N 13 20 29.70 1006 10 16 0.01 0.25
9:52 am 09:52 Cloudy 53 11.7 51 10.6 93 93 N 14 22 29.72 1006 10 16 0.00 0.00
10:52 am 10:52 Cloudy 54 12.2 50 10 87 87 N 16 26 29.73 1007 10 16 0.00 0.00
11:52 am 11:52 Cloudy 56 13.3 50 10 81 81 N 17 28 29.76 1008 10 16 0.00 0.00
12:52 pm 12:52 Cloudy 57 13.9 49 9.4 74 74 NNE 17 28 29.77 1008 10 16 0.00 0.00
1:52 pm 13:52 Cloudy 59 15 50 10 72 72 NNE 16 26 29.78 1009 10 16 0.00 0.00
2:52 pm 14:52 Cloudy 57 13.9 49 9.4 74 74 NNE 18 30 29.82 1010 10 16 0.00 0.00
3:52 pm 15:52 Cloudy 58 14.4 49 9.4 72 72 NE 18 30 29.82 1010 10 16 0.00 0.00
4:10 pm 16:10 Cloudy 59 15 49 9.4 69 69 NE 16 26 29.82 1010 10 16 0.00 0.00
4:52 pm 16:52 Cloudy 59 15 50 10 72 72 N 13 20 29.83 1010 10 16 0.00 0.00
5:52 pm 17:52 Cloudy 60 15.6 49 9.4 67 67 N 12 19 29.85 1011 10 16 0.00 0.00
6:52 pm 18:52 Cloudy 60 15.6 49 9.4 67 67 NE 17 28 29.86 1011 10 16 0.00 0.00
7:52 pm 19:52 Cloudy 59 15 49 9.4 69 69 NNE 10 17 29.87 1011 10 16 0.00 0.00
8:52 pm 20:52 Cloudy 59 15 49 9.4 69 69 NNE 12 19 29.89 1012 10 16 0.00 0.00
9:52 pm 21:52 Cloudy 58 14.4 48 8.9 70 70 NE 9 15 29.90 1013 10 16 0.00 0.00
10:52 pm 22:52 Cloudy 57 13.9 48 8.9 72 72 N 9 15 29.92 1013 10 16 0.00 0.00
11:52 pm 23:52 Partly Cloudy 55 12.8 48 8.9 77 77 N 8 13 29.93 1014 10 16 0.00 0.00

Powered by AerisWeather